| time (UTC) | temp F | wind direction | speed MPH | gust MPH | rain 1hr in | rain 24hr in | rain mn in | humidity % | barometer mb |
| 20260507163844 | 83 | 233 | 4.0 | 9.0 | 0.00 | 0.00 | 0.00 | 25 | 1013.3 |
| 20260507163317 | 83 | 230 | 4.0 | 8.0 | 0.00 | 0.00 | 0.00 | 26 | 1013.3 |
| 20260507162851 | 83 | 246 | 5.0 | 8.0 | 0.00 | 0.00 | 0.00 | 26 | 1013.3 |
| 20260507162320 | 82 | 281 | 5.0 | 9.0 | 0.00 | 0.00 | 0.00 | 26 | 1013.3 |
| 20260507161813 | 82 | 238 | 5.0 | 9.0 | 0.00 | 0.00 | 0.00 | 26 | 1013.3 |
| 20260507161325 | 81 | 303 | 5.0 | 9.0 | 0.00 | 0.00 | 0.00 | 26 | 1013.3 |
| 20260507160816 | 81 | 260 | 5.0 | 9.0 | 0.00 | 0.00 | 0.00 | 26 | 1013.4 |
| 20260507160347 | 81 | 312 | 5.0 | 9.0 | 0.00 | 0.00 | 0.00 | 27 | 1013.4 |
| 20260507155817 | 81 | 290 | 7.0 | 9.0 | 0.00 | 0.00 | 0.00 | 26 | 1013.4 |
| 20260507155327 | 80 | 298 | 6.0 | 9.0 | 0.00 | 0.00 | 0.00 | 26 | 1013.4 |
| 20260507154819 | 80 | 261 | 7.0 | 11.0 | 0.00 | 0.00 | 0.00 | 26 | 1013.4 |
| 20260507154314 | 80 | 288 | 8.0 | 12.0 | 0.00 | 0.00 | 0.00 | 26 | 1013.5 |
| 20260507153826 | 80 | 282 | 8.0 | 12.0 | 0.00 | 0.00 | 0.00 | 26 | 1013.4 |
| 20260507153318 | 80 | 254 | 10.0 | 13.0 | 0.00 | 0.00 | 0.00 | 26 | 1013.4 |
| 20260507152832 | 80 | 259 | 9.0 | 13.0 | 0.00 | 0.00 | 0.00 | 25 | 1013.5 |
| 20260507152324 | 81 | 244 | 7.0 | 11.0 | 0.00 | 0.00 | 0.00 | 24 | 1013.4 |
| 20260507151818 | 81 | 261 | 8.0 | 11.0 | 0.00 | 0.00 | 0.00 | 23 | 1013.4 |
| 20260507151350 | 82 | 112 | 2.0 | 3.0 | 0.00 | 0.00 | 0.00 | 23 | 1013.4 |
| 20260507150842 | 81 | 355 | 2.0 | 3.0 | 0.00 | 0.00 | 0.00 | 21 | 1013.4 |
| 20260507150313 | 81 | 307 | 2.0 | 3.0 | 0.00 | 0.00 | 0.00 | 21 | 1013.4 |
| 20260507145826 | 80 | 19 | 1.0 | 2.0 | 0.00 | 0.00 | 0.00 | 22 | 1013.4 |
| 20260507145339 | 79 | 19 | 0.0 | 2.0 | 0.00 | 0.00 | 0.00 | 23 | 1013.3 |
| 20260507144829 | 78 | 19 | 1.0 | 3.0 | 0.00 | 0.00 | 0.00 | 24 | 1013.3 |
| 20260507144320 | 78 | 19 | 1.0 | 3.0 | 0.00 | 0.00 | 0.00 | 25 | 1013.3 |
| 20260507143832 | 77 | 19 | 2.0 | 3.0 | 0.00 | 0.00 | 0.00 | 25 | 1013.3 |
| 20260507143323 | 76 | 19 | 2.0 | 3.0 | 0.00 | 0.00 | 0.00 | 26 | 1013.2 |
| 20260507142817 | 75 | 19 | 2.0 | 4.0 | 0.00 | 0.00 | 0.00 | 27 | 1013.2 |
| 20260507142328 | 75 | 5 | 3.0 | 8.0 | 0.00 | 0.00 | 0.00 | 27 | 1013.2 |
| 20260507141820 | 74 | 355 | 4.0 | 8.0 | 0.00 | 0.00 | 0.00 | 28 | 1013.1 |
| 20260507141316 | 74 | 360 | 4.0 | 5.0 | 0.00 | 0.00 | 0.00 | 27 | 1013.1 |
| 20260507140830 | 74 | 9 | 0.0 | 6.0 | 0.00 | 0.00 | 0.00 | 28 | 1013.2 |
| 20260507140322 | 74 | 9 | 4.0 | 6.0 | 0.00 | 0.00 | 0.00 | 27 | 1013.1 |
| 20260507135832 | 73 | 9 | 4.0 | 8.0 | 0.00 | 0.00 | 0.00 | 28 | 1013.1 |
| 20260507135322 | 73 | 331 | 6.0 | 8.0 | 0.00 | 0.00 | 0.00 | 29 | 1013.1 |
| 20260507134815 | 72 | 355 | 4.0 | 5.0 | 0.00 | 0.00 | 0.00 | 31 | 1013.0 |
| 20260507134347 | 71 | 32 | 3.0 | 4.0 | 0.00 | 0.00 | 0.00 | 32 | 1013.0 |
| 20260507133819 | 70 | 97 | 1.0 | 4.0 | 0.00 | 0.00 | 0.00 | 33 | 1012.9 |
| 20260507133331 | 69 | 102 | 2.0 | 4.0 | 0.00 | 0.00 | 0.00 | 34 | 1012.8 |
| 20260507132828 | 69 | 87 | 3.0 | 4.0 | 0.00 | 0.00 | 0.00 | 34 | 1012.8 |
| 20260507132321 | 69 | 83 | 1.0 | 11.0 | 0.00 | 0.00 | 0.00 | 34 | 1012.7 |
| 20260507131835 | 69 | 328 | 6.0 | 12.0 | 0.00 | 0.00 | 0.00 | 34 | 1012.7 |
| 20260507131325 | 69 | 288 | 10.0 | 12.0 | 0.00 | 0.00 | 0.00 | 34 | 1012.6 |
| 20260507130816 | 69 | 300 | 10.0 | 12.0 | 0.00 | 0.00 | 0.00 | 35 | 1012.5 |
| 20260507130328 | 69 | 297 | 10.0 | 12.0 | 0.00 | 0.00 | 0.00 | 35 | 1012.5 |
| 20260507125818 | 68 | 315 | 10.0 | 12.0 | 0.00 | 0.00 | 0.00 | 36 | 1012.5 |
| 20260507125331 | 68 | 314 | 9.0 | 12.0 | 0.00 | 0.00 | 0.00 | 36 | 1012.4 |
| 20260507124824 | 68 | 309 | 9.0 | 13.0 | 0.00 | 0.00 | 0.00 | 36 | 1012.2 |
| 20260507124315 | 68 | 306 | 10.0 | 13.0 | 0.00 | 0.00 | 0.00 | 36 | 1012.3 |
| 20260507123825 | 68 | 323 | 9.0 | 12.0 | 0.00 | 0.00 | 0.00 | 35 | 1012.2 |
| 20260507123319 | 69 | 296 | 10.0 | 13.0 | 0.00 | 0.00 | 0.00 | 36 | 1012.2 |
| 20260507122834 | 69 | 296 | 11.0 | 13.0 | 0.00 | 0.00 | 0.00 | 35 | 1012.3 |
| 20260507122323 | 69 | 281 | 10.0 | 14.0 | 0.00 | 0.00 | 0.00 | 36 | 1012.3 |
| 20260507121815 | 68 | 285 | 11.0 | 14.0 | 0.00 | 0.00 | 0.00 | 36 | 1012.2 |
| 20260507121326 | 68 | 309 | 9.0 | 11.0 | 0.00 | 0.00 | 0.00 | 37 | 1012.3 |
| 20260507120818 | 68 | 308 | 7.0 | 10.0 | 0.00 | 0.00 | 0.00 | 37 | 1012.3 |
| 20260507120329 | 68 | 317 | 6.0 | 10.0 | 0.00 | 0.00 | 0.00 | 38 | 1012.4 |
| 20260507115818 | 68 | 324 | 6.0 | 12.0 | 0.00 | 0.00 | 0.00 | 38 | 1012.3 |
| 20260507115349 | 68 | 299 | 9.0 | 12.0 | 0.00 | 0.00 | 0.00 | 38 | 1012.3 |
| 20260507114825 | 68 | 339 | 10.0 | 12.0 | 0.00 | 0.00 | 0.00 | 39 | 1012.3 |
| 20260507114336 | 68 | 297 | 9.0 | 12.0 | 0.00 | 0.00 | 0.00 | 39 | 1012.3 |
| 20260507113847 | 68 | 300 | 10.0 | 14.0 | 0.00 | 0.00 | 0.00 | 39 | 1012.3 |
| 20260507113317 | 68 | 309 | 10.0 | 14.0 | 0.00 | 0.00 | 0.00 | 39 | 1012.3 |
| 20260507112829 | 68 | 305 | 11.0 | 13.0 | 0.00 | 0.00 | 0.00 | 39 | 1012.4 |
| 20260507112319 | 68 | 309 | 11.0 | 14.0 | 0.00 | 0.00 | 0.00 | 40 | 1012.4 |
| 20260507111835 | 68 | 299 | 12.0 | 14.0 | 0.00 | 0.00 | 0.00 | 40 | 1012.4 |
| 20260507111324 | 68 | 311 | 11.0 | 15.0 | 0.00 | 0.00 | 0.00 | 40 | 1012.5 |
| 20260507110816 | 68 | 305 | 13.0 | 15.0 | 0.00 | 0.00 | 0.00 | 40 | 1012.5 |
| 20260507110330 | 68 | 308 | 11.0 | 15.0 | 0.00 | 0.00 | 0.00 | 40 | 1012.5 |
| 20260507105842 | 68 | 293 | 11.0 | 16.0 | 0.00 | 0.00 | 0.00 | 40 | 1012.5 |
| 20260507105313 | 68 | 302 | 13.0 | 16.0 | 0.00 | 0.00 | 0.00 | 40 | 1012.5 |
| 20260507104826 | 68 | 302 | 12.0 | 15.0 | 0.00 | 0.00 | 0.00 | 41 | 1012.5 |
| 20260507104338 | 67 | 313 | 10.0 | 13.0 | 0.00 | 0.00 | 0.00 | 42 | 1012.6 |
| 20260507103850 | 67 | 319 | 10.0 | 12.0 | 0.00 | 0.00 | 0.00 | 42 | 1012.6 |
| 20260507103321 | 68 | 317 | 8.0 | 11.0 | 0.00 | 0.00 | 0.00 | 42 | 1012.8 |
| 20260507102833 | 68 | 323 | 9.0 | 11.0 | 0.00 | 0.00 | 0.00 | 42 | 1012.8 |
| 20260507102323 | 67 | 309 | 8.0 | 10.0 | 0.00 | 0.00 | 0.00 | 42 | 1012.9 |
| 20260507101816 | 67 | 321 | 8.0 | 10.0 | 0.00 | 0.00 | 0.00 | 43 | 1012.9 |
| 20260507101348 | 67 | 336 | 7.0 | 10.0 | 0.00 | 0.00 | 0.00 | 43 | 1012.9 |
| 20260507100840 | 67 | 331 | 7.0 | 10.0 | 0.00 | 0.00 | 0.00 | 42 | 1012.9 |
| 20260507100314 | 67 | 315 | 7.0 | 11.0 | 0.00 | 0.00 | 0.00 | 42 | 1012.9 |
| 20260507095845 | 67 | 312 | 8.0 | 11.0 | 0.00 | 0.00 | 0.00 | 42 | 1012.9 |
| 20260507095314 | 68 | 313 | 8.0 | 12.0 | 0.00 | 0.00 | 0.00 | 42 | 1012.9 |
| 20260507094827 | 68 | 274 | 10.0 | 12.0 | 0.00 | 0.00 | 0.00 | 42 | 1012.9 |
| 20260507094318 | 68 | 300 | 9.0 | 11.0 | 0.00 | 0.00 | 0.00 | 42 | 1012.9 |
| 20260507093830 | 68 | 276 | 8.0 | 10.0 | 0.00 | 0.00 | 0.00 | 42 | 1012.9 |
| 20260507093342 | 68 | 292 | 8.0 | 10.0 | 0.00 | 0.00 | 0.00 | 43 | 1012.9 |
| 20260507092813 | 67 | 281 | 9.0 | 11.0 | 0.00 | 0.00 | 0.00 | 43 | 1012.9 |
| 20260507092324 | 67 | 288 | 9.0 | 11.0 | 0.00 | 0.00 | 0.00 | 44 | 1013.0 |
| 20260507091821 | 67 | 288 | 9.0 | 11.0 | 0.00 | 0.00 | 0.00 | 45 | 1013.0 |
| 20260507091312 | 67 | 278 | 9.0 | 11.0 | 0.00 | 0.00 | 0.00 | 46 | 1013.0 |
| 20260507090846 | 67 | 287 | 9.0 | 10.0 | 0.00 | 0.00 | 0.00 | 47 | 1013.1 |
| 20260507090314 | 67 | 284 | 9.0 | 10.0 | 0.00 | 0.00 | 0.00 | 47 | 1013.2 |
| 20260507085823 | 67 | 291 | 8.0 | 10.0 | 0.00 | 0.00 | 0.00 | 48 | 1013.2 |
| 20260507085313 | 67 | 279 | 8.0 | 10.0 | 0.00 | 0.00 | 0.00 | 48 | 1013.3 |
| 20260507084825 | 67 | 271 | 9.0 | 10.0 | 0.00 | 0.00 | 0.00 | 47 | 1013.3 |
| 20260507084317 | 67 | 267 | 8.0 | 10.0 | 0.00 | 0.00 | 0.00 | 47 | 1013.3 |
| 20260507083829 | 67 | 245 | 9.0 | 10.0 | 0.00 | 0.00 | 0.00 | 47 | 1013.3 |
| 20260507083321 | 67 | 254 | 7.0 | 9.0 | 0.00 | 0.00 | 0.00 | 46 | 1013.4 |
| 20260507082816 | 67 | 274 | 7.0 | 9.0 | 0.00 | 0.00 | 0.00 | 46 | 1013.3 |
| 20260507082347 | 67 | 271 | 7.0 | 9.0 | 0.00 | 0.00 | 0.00 | 47 | 1013.4 |
| 20260507081818 | 67 | 285 | 8.0 | 9.0 | 0.00 | 0.00 | 0.00 | 48 | 1013.4 |
| 20260507081328 | 67 | 295 | 7.0 | 8.0 | 0.00 | 0.00 | 0.00 | 48 | 1013.4 |
| 20260507080842 | 67 | 296 | 5.0 | 10.0 | 0.00 | 0.00 | 0.00 | 47 | 1013.6 |
| 20260507080312 | 68 | 296 | 8.0 | 10.0 | 0.00 | 0.00 | 0.00 | 48 | 1013.7 |
| 20260507075822 | 68 | 284 | 9.0 | 10.0 | 0.00 | 0.00 | 0.00 | 48 | 1013.6 |
| 20260507075313 | 68 | 303 | 8.0 | 10.0 | 0.00 | 0.00 | 0.00 | 50 | 1013.6 |
| 20260507074827 | 68 | 295 | 8.0 | 10.0 | 0.00 | 0.00 | 0.00 | 50 | 1013.7 |
| 20260507074317 | 68 | 318 | 8.0 | 11.0 | 0.00 | 0.00 | 0.00 | 49 | 1013.7 |
| 20260507073814 | 68 | 300 | 8.0 | 11.0 | 0.00 | 0.00 | 0.00 | 49 | 1013.8 |
| 20260507073324 | 68 | 288 | 9.0 | 11.0 | 0.00 | 0.00 | 0.00 | 49 | 1013.7 |
| 20260507072836 | 68 | 317 | 8.0 | 10.0 | 0.00 | 0.00 | 0.00 | 49 | 1013.8 |
| 20260507072326 | 67 | 302 | 9.0 | 10.0 | 0.00 | 0.00 | 0.00 | 50 | 1013.9 |
| 20260507071837 | 67 | 309 | 8.0 | 9.0 | 0.00 | 0.00 | 0.00 | 50 | 1013.9 |
| 20260507071328 | 68 | 319 | 6.0 | 9.0 | 0.00 | 0.00 | 0.00 | 50 | 1013.9 |
| 20260507070820 | 68 | 313 | 5.0 | 6.0 | 0.00 | 0.00 | 0.00 | 49 | 1014.0 |
| 20260507070330 | 68 | 272 | 6.0 | 8.0 | 0.00 | 0.00 | 0.00 | 49 | 1014.0 |
| 20260507065820 | 69 | 263 | 7.0 | 8.0 | 0.00 | 0.00 | 0.00 | 49 | 1014.0 |
| 20260507065330 | 69 | 270 | 6.0 | 7.0 | 0.00 | 0.00 | 0.00 | 48 | 1014.0 |
| 20260507064822 | 69 | 262 | 3.0 | 8.0 | 0.00 | 0.00 | 0.00 | 47 | 1014.2 |
| 20260507064318 | 70 | 257 | 6.0 | 10.0 | 0.00 | 0.00 | 0.00 | 47 | 1014.2 |
| 20260507063830 | 70 | 251 | 8.0 | 10.0 | 0.00 | 0.00 | 0.00 | 47 | 1014.2 |
| 20260507063321 | 70 | 260 | 7.0 | 11.0 | 0.00 | 0.00 | 0.00 | 46 | 1014.2 |
| 20260507062813 | 71 | 263 | 9.0 | 12.0 | 0.00 | 0.00 | 0.00 | 45 | 1014.3 |
| 20260507062324 | 71 | 275 | 10.0 | 16.0 | 0.00 | 0.00 | 0.00 | 45 | 1014.2 |
| 20260507061815 | 71 | 269 | 11.0 | 16.0 | 0.00 | 0.00 | 0.00 | 45 | 1014.2 |
| 20260507061324 | 71 | 294 | 9.0 | 13.0 | 0.00 | 0.00 | 0.00 | 44 | 1014.2 |
| 20260507060816 | 72 | 281 | 10.0 | 13.0 | 0.00 | 0.00 | 0.00 | 44 | 1014.3 |
| 20260507060327 | 72 | 302 | 10.0 | 17.0 | 0.00 | 0.00 | 0.00 | 44 | 1014.3 |
| 20260507055820 | 72 | 304 | 12.0 | 17.0 | 0.00 | 0.00 | 0.00 | 44 | 1014.4 |
| 20260507055313 | 72 | 297 | 11.0 | 15.0 | 0.00 | 0.00 | 0.00 | 44 | 1014.4 |
| 20260507054826 | 72 | 299 | 12.0 | 17.0 | 0.00 | 0.00 | 0.00 | 44 | 1014.4 |
| 20260507054318 | 72 | 290 | 11.0 | 17.0 | 0.00 | 0.00 | 0.00 | 44 | 1014.4 |
| 20260507053850 | 72 | 303 | 13.0 | 18.0 | 0.00 | 0.00 | 0.00 | 44 | 1014.5 |
| 20260507053319 | 72 | 311 | 13.0 | 18.0 | 0.00 | 0.00 | 0.00 | 45 | 1014.4 |
| 20260507052831 | 72 | 300 | 13.0 | 21.0 | 0.00 | 0.00 | 0.00 | 45 | 1014.4 |
| 20260507052322 | 72 | 298 | 14.0 | 21.0 | 0.00 | 0.00 | 0.00 | 45 | 1014.4 |
| 20260507051818 | 72 | 304 | 14.0 | 23.0 | 0.00 | 0.00 | 0.00 | 45 | 1014.4 |
| 20260507051328 | 73 | 287 | 15.0 | 21.0 | 0.00 | 0.00 | 0.00 | 45 | 1014.3 |
| 20260507050821 | 73 | 302 | 17.0 | 20.0 | 0.00 | 0.00 | 0.00 | 44 | 1014.3 |
| 20260507050331 | 73 | 296 | 14.0 | 20.0 | 0.00 | 0.00 | 0.00 | 44 | 1014.3 |
| 20260507045839 | 73 | 321 | 14.0 | 20.0 | 0.00 | 0.00 | 0.00 | 43 | 1014.4 |
| 20260507045349 | 73 | 297 | 14.0 | 18.0 | 0.00 | 0.00 | 0.00 | 43 | 1014.3 |
| 20260507044822 | 74 | 302 | 13.0 | 21.0 | 0.00 | 0.00 | 0.00 | 42 | 1014.4 |
| 20260507044313 | 74 | 295 | 14.0 | 20.0 | 0.00 | 0.00 | 0.00 | 42 | 1014.3 |
| 20260507043827 | 74 | 288 | 13.0 | 20.0 | 0.00 | 0.00 | 0.00 | 41 | 1014.3 |
| 20260507043318 | 74 | 277 | 15.0 | 20.0 | 0.00 | 0.00 | 0.00 | 40 | 1014.2 |
| 20260507042833 | 74 | 270 | 16.0 | 20.0 | 0.00 | 0.00 | 0.00 | 40 | 1014.2 |
| 20260507042325 | 75 | 292 | 14.0 | 20.0 | 0.00 | 0.00 | 0.00 | 39 | 1014.1 |
| 20260507041818 | 75 | 261 | 15.0 | 20.0 | 0.00 | 0.00 | 0.00 | 39 | 1014.1 |
| 20260507041329 | 75 | 257 | 14.0 | 18.0 | 0.00 | 0.00 | 0.00 | 38 | 1014.1 |
| 20260507040821 | 76 | 277 | 14.0 | 18.0 | 0.00 | 0.00 | 0.00 | 38 | 1014.0 |
| 20260507040330 | 76 | 258 | 11.0 | 15.0 | 0.00 | 0.00 | 0.00 | 36 | 1014.0 |
| 20260507035820 | 76 | 276 | 10.0 | 15.0 | 0.00 | 0.00 | 0.00 | 35 | 1014.0 |
| 20260507035331 | 76 | 275 | 12.0 | 18.0 | 0.00 | 0.00 | 0.00 | 35 | 1013.9 |
| 20260507034822 | 77 | 288 | 14.0 | 18.0 | 0.00 | 0.00 | 0.00 | 34 | 1013.9 |
| 20260507034353 | 77 | 282 | 11.0 | 15.0 | 0.00 | 0.00 | 0.00 | 33 | 1013.8 |
| 20260507033828 | 77 | 277 | 11.0 | 15.0 | 0.00 | 0.00 | 0.00 | 33 | 1013.7 |
| 20260507033319 | 77 | 277 | 9.0 | 12.0 | 0.00 | 0.00 | 0.00 | 32 | 1013.6 |
| 20260507032812 | 77 | 270 | 8.0 | 13.0 | 0.00 | 0.00 | 0.00 | 31 | 1013.6 |
| 20260507032344 | 77 | 287 | 10.0 | 13.0 | 0.00 | 0.00 | 0.00 | 31 | 1013.5 |
| 20260507031814 | 78 | 265 | 9.0 | 12.0 | 0.00 | 0.00 | 0.00 | 31 | 1013.4 |
| 20260507031325 | 78 | 261 | 6.0 | 11.0 | 0.00 | 0.00 | 0.00 | 30 | 1013.4 |
| 20260507030817 | 78 | 300 | 7.0 | 15.0 | 0.00 | 0.00 | 0.00 | 30 | 1013.3 |
| 20260507030327 | 78 | 269 | 10.0 | 15.0 | 0.00 | 0.00 | 0.00 | 30 | 1013.2 |
| 20260507025837 | 78 | 267 | 9.0 | 13.0 | 0.00 | 0.00 | 0.00 | 29 | 1013.2 |
| 20260507025347 | 79 | 273 | 8.0 | 14.0 | 0.00 | 0.00 | 0.00 | 29 | 1013.1 |
| 20260507024822 | 79 | 242 | 9.0 | 13.0 | 0.00 | 0.00 | 0.00 | 29 | 1013.0 |
| 20260507024313 | 79 | 261 | 10.0 | 13.0 | 0.00 | 0.00 | 0.00 | 29 | 1012.9 |
| 20260507023825 | 79 | 263 | 11.0 | 16.0 | 0.00 | 0.00 | 0.00 | 29 | 1012.8 |
| 20260507023335 | 80 | 260 | 13.0 | 16.0 | 0.00 | 0.00 | 0.00 | 29 | 1012.7 |
| 20260507022847 | 80 | 297 | 11.0 | 16.0 | 0.00 | 0.00 | 0.00 | 28 | 1012.7 |
| 20260507022317 | 80 | 273 | 8.0 | 13.0 | 0.00 | 0.00 | 0.00 | 28 | 1012.7 |
| 20260507021850 | 81 | 246 | 9.0 | 14.0 | 0.00 | 0.00 | 0.00 | 28 | 1012.6 |
| 20260507021321 | 81 | 263 | 11.0 | 16.0 | 0.00 | 0.00 | 0.00 | 27 | 1012.6 |
| 20260507020814 | 82 | 246 | 9.0 | 16.0 | 0.00 | 0.00 | 0.00 | 27 | 1012.5 |
| 20260507020325 | 82 | 251 | 12.0 | 16.0 | 0.00 | 0.00 | 0.00 | 27 | 1012.5 |
| 20260507015836 | 82 | 252 | 9.0 | 17.0 | 0.00 | 0.00 | 0.00 | 26 | 1012.5 |
| 20260507015329 | 83 | 196 | 11.0 | 17.0 | 0.00 | 0.00 | 0.00 | 22 | 1012.4 |
| 20260507014820 | 84 | 259 | 11.0 | 15.0 | 0.00 | 0.00 | 0.00 | 25 | 1012.4 |
| 20260507014330 | 85 | 248 | 4.0 | 9.0 | 0.00 | 0.00 | 0.00 | 22 | 1012.3 |
| 20260507013823 | 85 | 180 | 4.0 | 5.0 | 0.00 | 0.00 | 0.00 | 20 | 1012.3 |
| 20260507013313 | 85 | 180 | 3.0 | 5.0 | 0.00 | 0.00 | 0.00 | 20 | 1012.2 |
| 20260507012826 | 85 | 150 | 1.0 | 8.0 | 0.00 | 0.00 | 0.00 | 20 | 1012.1 |
| 20260507012316 | 86 | 167 | 3.0 | 8.0 | 0.00 | 0.00 | 0.00 | 20 | 1012.1 |
| 20260507011830 | 86 | 138 | 5.0 | 8.0 | 0.00 | 0.00 | 0.00 | 20 | 1012.1 |
| 20260507011322 | 86 | 145 | 1.0 | 4.0 | 0.00 | 0.00 | 0.00 | 20 | 1012.1 |
| 20260507010819 | 86 | 180 | 2.0 | 4.0 | 0.00 | 0.00 | 0.00 | 19 | 1012.0 |
| 20260507010331 | 86 | 159 | 2.0 | 6.0 | 0.00 | 0.00 | 0.00 | 20 | 1012.0 |
| 20260507005821 | 86 | 178 | 3.0 | 7.0 | 0.00 | 0.00 | 0.00 | 20 | 1012.1 |
| 20260507005332 | 86 | 160 | 3.0 | 7.0 | 0.00 | 0.00 | 0.00 | 19 | 1012.0 |
| 20260507004845 | 86 | 199 | 5.0 | 7.0 | 0.00 | 0.00 | 0.00 | 19 | 1012.0 |
| 20260507004314 | 86 | 178 | 5.0 | 8.0 | 0.00 | 0.00 | 0.00 | 19 | 1012.0 |
| 20260507003826 | 86 | 205 | 4.0 | 8.0 | 0.00 | 0.00 | 0.00 | 20 | 1012.0 |
| 20260507003318 | 86 | 194 | 2.0 | 8.0 | 0.00 | 0.00 | 0.00 | 19 | 1012.0 |
| 20260507002815 | 86 | 188 | 5.0 | 13.0 | 0.00 | 0.00 | 0.00 | 20 | 1012.0 |
| 20260507002326 | 86 | 182 | 5.0 | 13.0 | 0.00 | 0.00 | 0.00 | 20 | 1012.0 |
| 20260507001818 | 86 | 146 | 5.0 | 7.0 | 0.00 | 0.00 | 0.00 | 19 | 1011.9 |
| 20260507001329 | 86 | 172 | 5.0 | 7.0 | 0.00 | 0.00 | 0.00 | 20 | 1011.9 |
| 20260507000823 | 86 | 205 | 3.0 | 10.0 | 0.00 | 0.00 | 0.00 | 19 | 1011.9 |
| 20260507000314 | 86 | 162 | 6.0 | 10.0 | 0.00 | 0.00 | 0.00 | 19 | 1011.8 |
| 20260506235823 | 85 | 192 | 4.0 | 11.0 | 0.00 | 0.00 | 0.00 | 20 | 1011.8 |
| 20260506235353 | 86 | 99 | 7.0 | 11.0 | 0.00 | 0.00 | 0.00 | 19 | 1011.8 |
| 20260506234825 | 86 | 139 | 3.0 | 7.0 | 0.00 | 0.00 | 0.00 | 19 | 1011.8 |
| 20260506234336 | 86 | 127 | 2.0 | 9.0 | 0.00 | 0.00 | 0.00 | 19 | 1011.8 |
| 20260506233813 | 85 | 140 | 6.0 | 9.0 | 0.00 | 0.00 | 0.00 | 19 | 1011.8 |
| 20260506233345 | 85 | 65 | 3.0 | 9.0 | 0.00 | 0.00 | 0.00 | 19 | 1011.9 |
| 20260506232817 | 86 | 91 | 5.0 | 9.0 | 0.00 | 0.00 | 0.00 | 18 | 1012.0 |
| 20260506232329 | 86 | 53 | 2.0 | 9.0 | 0.00 | 0.00 | 0.00 | 18 | 1012.0 |
| 20260506231820 | 86 | 126 | 5.0 | 9.0 | 0.00 | 0.00 | 0.00 | 18 | 1012.0 |
| 20260506231331 | 86 | 126 | 3.0 | 7.0 | 0.00 | 0.00 | 0.00 | 18 | 1012.0 |
| 20260506230824 | 86 | 153 | 3.0 | 9.0 | 0.00 | 0.00 | 0.00 | 19 | 1012.1 |
| 20260506230335 | 86 | 74 | 3.0 | 9.0 | 0.00 | 0.00 | 0.00 | 18 | 1012.2 |
| 20260506225822 | 86 | 104 | 3.0 | 8.0 | 0.00 | 0.00 | 0.00 | 18 | 1012.1 |
| 20260506225331 | 86 | 192 | 2.0 | 8.0 | 0.00 | 0.00 | 0.00 | 18 | 1012.2 |
| 20260506224827 | 86 | 126 | 5.0 | 11.0 | 0.00 | 0.00 | 0.00 | 18 | 1012.3 |
| 20260506224319 | 87 | 175 | 6.0 | 11.0 | 0.00 | 0.00 | 0.00 | 19 | 1012.3 |
| 20260506223830 | 87 | 94 | 4.0 | 10.0 | 0.00 | 0.00 | 0.00 | 18 | 1012.4 |
| 20260506223321 | 87 | 136 | 3.0 | 10.0 | 0.00 | 0.00 | 0.00 | 18 | 1012.4 |
| 20260506222813 | 86 | 198 | 5.0 | 10.0 | 0.00 | 0.00 | 0.00 | 18 | 1012.5 |
| 20260506222325 | 86 | 84 | 4.0 | 9.0 | 0.00 | 0.00 | 0.00 | 19 | 1012.5 |
| 20260506221816 | 85 | 195 | 1.0 | 9.0 | 0.00 | 0.00 | 0.00 | 19 | 1012.6 |
| 20260506221326 | 85 | 190 | 2.0 | 9.0 | 0.00 | 0.00 | 0.00 | 19 | 1012.7 |
| 20260506220819 | 85 | 173 | 6.0 | 10.0 | 0.00 | 0.00 | 0.00 | 19 | 1012.8 |
| 20260506220315 | 85 | 179 | 7.0 | 10.0 | 0.00 | 0.00 | 0.00 | 20 | 1012.8 |
| 20260506215826 | 85 | 184 | 6.0 | 21.0 | 0.00 | 0.00 | 0.00 | 20 | 1013.0 |
| 20260506215317 | 85 | 136 | 6.0 | 21.0 | 0.00 | 0.00 | 0.00 | 19 | 1012.9 |
| 20260506214829 | 85 | 179 | 6.0 | 13.0 | 0.00 | 0.00 | 0.00 | 20 | 1013.0 |
| 20260506214319 | 84 | 183 | 7.0 | 13.0 | 0.00 | 0.00 | 0.00 | 20 | 1013.2 |
| 20260506213832 | 84 | 148 | 9.0 | 15.0 | 0.00 | 0.00 | 0.00 | 20 | 1013.2 |
| 20260506213323 | 84 | 243 | 4.0 | 9.0 | 0.00 | 0.00 | 0.00 | 20 | 1013.3 |
| 20260506212816 | 85 | 254 | 6.0 | 9.0 | 0.00 | 0.00 | 0.00 | 19 | 1013.4 |
| 20260506212330 | 85 | 154 | 4.0 | 9.0 | 0.00 | 0.00 | 0.00 | 20 | 1013.5 |
| 20260506211823 | 84 | 172 | 6.0 | 10.0 | 0.00 | 0.00 | 0.00 | 20 | 1013.4 |
| 20260506211314 | 84 | 200 | 3.0 | 9.0 | 0.00 | 0.00 | 0.00 | 20 | 1013.5 |
| 20260506210846 | 84 | 179 | 5.0 | 9.0 | 0.00 | 0.00 | 0.00 | 21 | 1013.6 |
| 20260506210315 | 83 | 227 | 7.0 | 11.0 | 0.00 | 0.00 | 0.00 | 20 | 1013.6 |
| 20260506205825 | 83 | 201 | 7.0 | 11.0 | 0.00 | 0.00 | 0.00 | 21 | 1013.7 |
| 20260506205316 | 84 | 117 | 4.0 | 11.0 | 0.00 | 0.00 | 0.00 | 20 | 1013.7 |
| 20260506204828 | 83 | 132 | 6.0 | 11.0 | 0.00 | 0.00 | 0.00 | 21 | 1013.8 |
| 20260506204319 | 83 | 145 | 4.0 | 9.0 | 0.00 | 0.00 | 0.00 | 21 | 1013.9 |
| 20260506203836 | 83 | 252 | 2.0 | 7.0 | 0.00 | 0.00 | 0.00 | 21 | 1014.0 |
| 20260506203326 | 82 | 215 | 5.0 | 9.0 | 0.00 | 0.00 | 0.00 | 21 | 1014.1 |
| 20260506202819 | 82 | 92 | 3.0 | 11.0 | 0.00 | 0.00 | 0.00 | 21 | 1014.1 |
| 20260506202328 | 82 | 178 | 9.0 | 12.0 | 0.00 | 0.00 | 0.00 | 22 | 1014.2 |
| 20260506201819 | 81 | 165 | 4.0 | 13.0 | 0.00 | 0.00 | 0.00 | 22 | 1014.2 |
| 20260506201330 | 81 | 260 | 9.0 | 13.0 | 0.00 | 0.00 | 0.00 | 22 | 1014.2 |
| 20260506200822 | 81 | 160 | 1.0 | 6.0 | 0.00 | 0.00 | 0.00 | 23 | 1014.3 |
| 20260506200313 | 80 | 32 | 3.0 | 6.0 | 0.00 | 0.00 | 0.00 | 23 | 1014.4 |
| 20260506195822 | 80 | 99 | 3.0 | 10.0 | 0.00 | 0.00 | 0.00 | 23 | 1014.5 |
| 20260506195317 | 80 | 20 | 7.0 | 10.0 | 0.00 | 0.00 | 0.00 | 23 | 1014.7 |
| 20260506194850 | 81 | 300 | 2.0 | 11.0 | 0.00 | 0.00 | 0.00 | 23 | 1014.7 |
| 20260506194321 | 81 | 192 | 6.0 | 11.0 | 0.00 | 0.00 | 0.00 | 24 | 1014.7 |
| 20260506193814 | 80 | 167 | 3.0 | 10.0 | 0.00 | 0.00 | 0.00 | 24 | 1014.8 |
| 20260506193325 | 80 | 273 | 4.0 | 10.0 | 0.00 | 0.00 | 0.00 | 24 | 1014.8 |
| 20260506192818 | 79 | 250 | 3.0 | 8.0 | 0.00 | 0.00 | 0.00 | 24 | 1014.9 |
| 20260506192349 | 79 | 228 | 3.0 | 8.0 | 0.00 | 0.00 | 0.00 | 24 | 1014.9 |
| 20260506191820 | 79 | 191 | 5.0 | 10.0 | 0.00 | 0.00 | 0.00 | 24 | 1015.0 |
| 20260506191331 | 79 | 212 | 5.0 | 10.0 | 0.00 | 0.00 | 0.00 | 23 | 1015.1 |
| 20260506190844 | 79 | 223 | 2.0 | 12.0 | 0.00 | 0.00 | 0.00 | 23 | 1015.0 |
| 20260506190317 | 80 | 167 | 5.0 | 12.0 | 0.00 | 0.00 | 0.00 | 25 | 1015.0 |
| 20260506185827 | 79 | 168 | 6.0 | 9.0 | 0.00 | 0.00 | 0.00 | 25 | 1015.1 |
| 20260506185317 | 78 | 225 | 2.0 | 7.0 | 0.00 | 0.00 | 0.00 | 25 | 1015.2 |
| 20260506184830 | 77 | 306 | 2.0 | 7.0 | 0.00 | 0.00 | 0.00 | 25 | 1015.3 |
| 20260506184321 | 77 | 208 | 2.0 | 7.0 | 0.00 | 0.00 | 0.00 | 26 | 1015.4 |
| 20260506183854 | 77 | 263 | 4.0 | 9.0 | 0.00 | 0.00 | 0.00 | 26 | 1015.5 |
| 20260506183324 | 76 | 286 | 6.0 | 10.0 | 0.00 | 0.00 | 0.00 | 27 | 1015.5 |
| 20260506182818 | 76 | 216 | 6.0 | 10.0 | 0.00 | 0.00 | 0.00 | 27 | 1015.6 |
| 20260506182330 | 76 | 150 | 2.0 | 10.0 | 0.00 | 0.00 | 0.00 | 27 | 1015.6 |
| 20260506181826 | 76 | 254 | 6.0 | 11.0 | 0.00 | 0.00 | 0.00 | 28 | 1015.6 |
| 20260506181315 | 76 | 248 | 6.0 | 11.0 | 0.00 | 0.00 | 0.00 | 28 | 1015.6 |
| 20260506180828 | 75 | 276 | 8.0 | 11.0 | 0.00 | 0.00 | 0.00 | 28 | 1015.6 |
| 20260506180318 | 76 | 249 | 8.0 | 13.0 | 0.00 | 0.00 | 0.00 | 28 | 1015.6 |
| 20260506175828 | 75 | 259 | 8.0 | 12.0 | 0.00 | 0.00 | 0.00 | 28 | 1015.6 |
| 20260506175319 | 75 | 311 | 8.0 | 12.0 | 0.00 | 0.00 | 0.00 | 29 | 1015.6 |
| 20260506174831 | 74 | 270 | 5.0 | 13.0 | 0.00 | 0.00 | 0.00 | 30 | 1015.6 |
| 20260506174320 | 74 | 275 | 10.0 | 14.0 | 0.00 | 0.00 | 0.00 | 30 | 1015.6 |
| 20260506173851 | 73 | 276 | 11.0 | 14.0 | 0.00 | 0.00 | 0.00 | 31 | 1015.6 |
| 20260506173321 | 73 | 261 | 10.0 | 14.0 | 0.00 | 0.00 | 0.00 | 31 | 1015.6 |
| 20260506172817 | 73 | 293 | 10.0 | 15.0 | 0.00 | 0.00 | 0.00 | 32 | 1015.6 |
| 20260506172329 | 72 | 248 | 12.0 | 16.0 | 0.00 | 0.00 | 0.00 | 32 | 1015.6 |
| 20260506171822 | 72 | 253 | 10.0 | 16.0 | 0.00 | 0.00 | 0.00 | 33 | 1015.6 |
| 20260506171353 | 72 | 265 | 10.0 | 14.0 | 0.00 | 0.00 | 0.00 | 33 | 1015.7 |
| 20260506170825 | 72 | 313 | 9.0 | 14.0 | 0.00 | 0.00 | 0.00 | 34 | 1015.6 |
| 20260506170316 | 71 | 252 | 10.0 | 14.0 | 0.00 | 0.00 | 0.00 | 34 | 1015.6 |
| 20260506165826 | 71 | 275 | 10.0 | 13.0 | 0.00 | 0.00 | 0.00 | 34 | 1015.6 |
| 20260506165318 | 71 | 273 | 10.0 | 16.0 | 0.00 | 0.00 | 0.00 | 34 | 1015.6 |
| 20260506164830 | 70 | 269 | 12.0 | 16.0 | 0.00 | 0.00 | 0.00 | 35 | 1015.6 |
| 20260506164325 | 70 | 275 | 13.0 | 18.0 | 0.00 | 0.00 | 0.00 | 35 | 1015.6 |